Reflectivity
-20 -20 -20 -20 -20 -20 -20 -20 -20 -20 -20 -20 -20 -20 -20 -20 -20 -20 -20 -20 -20 -20 -20 -20 -20 -20 -20 -20 -20 -20 -20 -18 -13 -20 -12 -20 -20 -20 4 -16 -20 -20 -3 10 23
-20 -20 -20 -20 -20 -20 -20 -20 -20 -20 -20 -20 -20 -20 -20 -20 -20 -20 -20 -20 -20 -20 -20 -20 -20 -20 -20 -20 -20 -20 -20 -20 -20 -20 -20 -20 -20 -20 -7 -16 39 37 26 7 13
-20 -20 -20 -20 -20 -20 -20 -20 -20 -20 -20 -20 -20 -20 -20 -20 -20 -20 -20 -20 -20 -20 -20 -20 -20 -20 -20 -20 -20 -20 -20 -20 -20 -20 -20 -20 -20 -20 -5 -20 14 23 31 -16 -13
-20 -20 -20 -20 -20 -20 -20 -20 -20 -20 -20 -20 -20 -20 -20 -20 -20 -20 -20 -20 -20 -20 -20 -20 -20 -20 -20 -20 -20 -20 -20 -20 -20 -20 -20 -20 -20 -20 -20 27 -7 -17 12 -20 2
-20 -20 -20 -20 -20 -20 -20 -20 -20 -20 -20 -20 -20 -20 -20 -20 -20 -20 -20 -20 -20 -20 -20 -20 -20 -20 -20 -20 -20 -20 -20 -20 -20 -20 -20 -20 -20 -20 -20 27 -12 -20 -20 -20 -16
-20 -20 -20 -20 -20 -20 -20 -20 -20 -20 -20 -20 -20 -20 -20 -20 -20 -20 -20 -20 -20 -20 -20 -20 -20 -20 -20 -20 -20 -20 -20 -20 -12 -13 -20 -20 -20 -20 23 -17 -17 -20 -20 -20 -1
-20 -20 -20 -20 -20 -20 -20 -20 -20 -20 -20 -20 -20 -20 -20 -20 -20 -20 -20 -20 -20 -20 -20 -20 -20 -20 -20 -20 -20 -20 -20 -9 -5 4 -9 -20 -10 -20 12 42 4 -20 -20 -20 -20
2 -20 -20 -20 -20 -20 -20 -20 -20 -20 -20 -20 -20 -20 -20 -20 -20 -20 -20 -20 -20 -20 -20 -20 -20 -20 -20 -20 -20 -20 -20 -20 -19 -20 -20 -11 1 -13 26 20 31 -20 -20 -20 -20
3 -13 -20 -20 -20 -20 -20 -20 -20 -20 -20 -20 -20 -20 -20 -20 -20 -20 -20 -20 -20 -20 -20 -20 -20 -20 -20 -20 -20 -20 -20 2 -6 -20 -20 -6 -19 -20 26 30 20 -20 -2 -20 -20
-20 -4 -8 -20 -19 -20 -20 -20 -20 -20 -20 -20 -20 -20 -20 -20 -20 -20 -20 -20 -20 -20 -20 -20 -20 -20 -20 -20 -20 2 -20 -2 -17 5 -20 -20 9 22 -5 2 -15 -20 -20 -20 -20
-20 -20 -20 -19 -20 -20 -20 -20 -20 -20 -20 -20 -20 -20 -20 -20 -20 -20 -20 -20 -20 -20 -20 -20 -20 -20 -20 -16 -20 -20 -20 -20 -8 -7 -20 -20 -20 -20 -20 -20 -20 -20 -20 -20 -20
-20 -20 -20 -20 -20 -20 -20 -20 -20 -20 -20 -20 -20 -20 -20 -20 -20 -20 -20 -20 -20 -20 -20 -20 -20 -20 -20 -20 -20 -20 -20 -20 -20 -7 -20 -20 -18 -20 -20 -20 -19 -20 -20 -20 -20
-20 -20 -20 -20 -20 -20 -20 -20 -20 -20 -20 -20 -20 -20 -20 -20 -20 -20 -20 -20 -20 -20 -20 -20 -20 -20 -20 -20 -20 -20 -20 -20 -20 -20 -20 -20 2 -20 -20 -20 -20 -20 -16 -12 -20
-20 -20 -20 -20 -20 -20 -20 -20 -20 -20 -20 -20 -20 -20 -20 -20 -20 -20 -20 -20 -20 -20 -20 -20 -20 -20 -20 -20 -20 -20 -20 -20 -20 -20 -19 -19 -20 -15 -20 -20 -20 -20 -20 -18 -13
-20 -20 -20 -20 -20 -20 -19 -20 -20 11 -20 -20 -20 -20 -20 -20 -20 -20 -20 -20 -20 -20 -20 -20 -20 -20 -20 -20 -20 -20 -20 -20 -20 -20 -20 11 -13 0 2 -20 -20 -20 -20 -20 -20
-12 -20 -20 -20 -15 -20 -5 -5 -11 -16 -20 -20 -20 -20 -20 -20 -20 -20 -20 -20 -20 -20 -20 -20 -20 -20 -20 -20 -20 -20 -20 -20 -20 -20 -20 2 -18 3 15 4 3 -20 -20 -20 -20
-5 -20 -20 -20 -20 -20 -20 -11 16 -20 -20 -20 -20 -20 -20 -20 -20 -20 -20 -20 -20 -20 -20 -7 -20 -20 -20 -20 -20 -20 -20 -20 -4 -20 -20 7 -20 -20 -19 -13 -20 -20 -20 -20 -20
11 -3 -20 -20 -20 -20 -20 16 17 -20 -20 -20 -20 -20 -20 -20 -20 -20 -20 -20 -20 -20 -20 -4 -20 -20 -20 -20 -20 -20 -20 -19 21 12 -0 15 -15 -20 -18 -20 -20 -20 -20 -20 -20
0 18 15 -18 -20 0 17 14 4 -20 -20 -20 -20 -20 -20 -20 -20 -20 -20 -20 -20 -17 -18 -20 -20 -20 -20 -20 -20 -20 -20 -20 15 5 -15 -20 14 -20 -5 -17 -20 -20 -20 -20 -20
19 18 14 -19 -20 15 17 16 -20 -20 -20 -20 -16 -20 -20 -20 -20 -20 -20 -20 -20 -3 10 10 -5 -20 -20 -20 -20 -19 -4 -16 -20 -19 14 -20 -20 12 10 -20 -20 -20 -20 -20 -20
23 26 14 13 -13 19 12 5 -20 -20 -20 -20 -20 -20 -20 3 -20 -20 -20 -19 9 22 23 -2 -20 -20 -20 -20 -20 -20 -20 -16 -20 -20 -20 -20 9 11 -14 -20 -20 -20 -20 -20 -20
31 28 7 12 15 7 2 -20 -20 -20 -20 -20 -20 -8 -20 -19 20 -20 -20 -19 12 17 27 -8 -20 -20 -20 -20 -20 -20 -20 -20 -20 -20 5 -20 -19 -20 -20 -20 -20 -20 -20 -20 -20
36 29 -1 -10 7 5 -11 -20 -20 -20 -20 -20 -20 -15 14 -17 -16 -20 -20 -19 25 20 20 4 -19 -20 3 -20 -20 -20 -20 -20 -20 -20 -20 -2 -20 -20 -20 -20 -20 -20 -20 -20 -20
35 28 18 23 -20 -1 6 -8 -11 -20 -20 -20 -20 -2 21 19 -8 -1 -19 -15 8 11 10 20 -10 -20 -20 -12 -17 -18 -20 -9 -7 -13 -20 -20 -20 -20 -10 -20 -20 -20 -10 27 19
37 23 -10 25 11 3 -20 -20 -20 -20 -20 -20 -20 -18 26 29 -17 4 17 -10 -6 8 13 17 6 -20 -20 -20 -14 -20 -20 -20 -20 -16 -20 -20 -20 -20 -20 -20 -18 -6 -1 -20 9
34 6 4 -0 4 11 4 -5 -20 -20 -20 -20 -20 -20 -1 23 28 -9 -20 16 -20 -7 15 8 4 -10 -20 -20 -20 -1 5 -20 -20 -20 -20 -20 -20 -20 -20 -20 -20 -19 -20 -20 -20
33 -12 9 -12 23 6 -20 -14 -20 -20 -20 -20 -20 -20 -12 3 16 25 16 10 -12 -19 3 -17 -20 -15 -9 -20 -20 -20 -19 -13 -20 -20 -20 -20 -20 -20 -20 -20 -20 -20 -20 -20 -20
Wind_Speed
13 14 13 12 12 11 11 12 12 12 14 16 18 20 23 23 26 18 15 4 6 9 3 11 13 13 14 14 18 13 12 10 13 15 7 0 10 6 4 11 18 7 14 13 9
15 15 16 15 13 12 11 11 12 12 13 15 17 20 23 22 22 19 4 8 8 7 9 10 11 11 11 18 9 9 11 4 16 10 10 10 9 4 3 15 14 19 15 19 13
12 14 16 16 15 14 14 12 13 13 14 14 16 19 23 24 14 4 2 8 5 7 13 15 13 12 12 17 11 14 12 14 14 12 10 11 10 3 14 5 10 8 13 14 14
9 11 14 16 16 15 15 14 14 14 14 14 15 17 25 10 7 7 11 7 4 9 12 14 11 12 12 18 16 12 11 12 13 13 13 11 12 6 15 9 6 13 17 15 13
11 8 11 14 16 15 15 15 15 15 14 14 14 15 12 10 17 9 7 7 8 10 13 14 13 12 14 17 14 9 12 10 9 8 12 14 9 14 10 6 9 10 12 14 12
10 12 11 10 13 15 15 16 15 16 14 14 14 14 10 18 15 5 9 9 12 13 14 15 13 13 12 16 14 13 10 14 8 19 15 11 15 6 19 9 9 7 12 12 15
10 10 10 12 12 14 16 17 16 17 15 13 13 11 13 24 18 18 8 12 15 15 16 16 15 11 14 14 12 13 14 8 8 6 19 19 15 8 13 18 11 11 14 14 12
12 10 11 12 12 14 16 17 18 19 15 13 10 11 13 13 14 20 21 13 16 14 16 13 8 10 14 15 18 16 17 12 17 14 18 21 7 4 13 18 20 15 14 15 16
13 11 10 12 14 14 17 20 21 21 14 11 8 10 14 7 15 18 17 18 14 12 12 10 6 12 14 16 13 14 15 15 9 15 20 12 8 15 14 23 17 16 15 16 20
12 13 12 10 13 14 17 24 23 8 10 11 10 11 15 13 11 15 18 17 16 15 14 13 8 12 14 13 13 5 12 8 8 11 9 15 7 3 21 30 10 16 19 16 17
10 11 11 12 12 13 16 12 7 8 9 10 9 12 23 6 8 6 16 19 19 17 17 17 12 15 20 19 21 12 14 16 6 17 6 10 6 12 7 7 9 11 10 13 14
11 10 11 11 11 11 11 8 11 7 12 18 25 25 25 22 10 15 15 19 21 20 20 17 18 19 21 18 9 12 11 16 9 10 2 10 6 9 10 8 11 12 11 13 13
11 10 10 10 11 10 13 20 18 10 10 18 26 24 29 25 23 16 20 23 21 21 21 20 18 19 19 8 9 10 13 14 10 6 12 13 13 7 14 14 13 14 12 16 16
11 9 10 8 8 9 13 14 15 4 9 14 17 11 29 22 25 27 20 22 22 23 22 21 21 12 11 10 13 13 9 14 9 10 7 7 10 15 12 12 12 15 17 14 16
11 10 10 9 12 9 10 15 17 3 8 6 17 5 9 24 8 24 29 24 27 24 16 20 21 18 14 15 15 13 8 9 11 13 14 9 11 4 7 18 17 13 18 20 18
13 11 9 9 10 17 13 15 7 7 13 7 9 9 12 23 25 6 28 24 22 26 21 21 17 19 21 14 14 14 13 10 12 12 11 14 8 6 4 11 15 17 16 19 23
16 13 12 12 11 6 6 4 6 13 11 13 14 12 16 18 25 24 26 26 24 23 21 21 23 18 14 18 14 11 10 8 6 8 8 4 10 6 16 15 2 2 17 16 19
16 14 14 12 13 9 4 4 16 20 33 5 18 17 17 17 20 23 21 24 24 23 16 17 17 23 13 14 13 14 14 5 6 4 4 5 7 4 11 10 5 5 4 7 11
17 10 12 11 14 6 2 11 17 28 24 27 11 13 16 16 13 20 25 22 22 27 23 17 22 20 18 14 19 14 15 17 8 10 5 7 14 10 8 5 4 3 0 6 8
9 7 12 13 13 7 8 17 25 32 35 27 27 15 14 16 16 14 22 17 24 26 20 18 15 22 23 19 18 18 11 13 8 5 10 8 10 8 9 7 7 6 6 6 2
9 6 8 15 11 8 16 25 34 32 29 29 26 21 25 13 17 17 12 15 15 18 22 22 12 14 17 19 17 12 12 11 13 10 8 5 3 11 4 2 8 5 7 4 5
7 8 8 17 12 10 24 33 31 28 29 30 26 29 19 22 9 17 15 14 4 21 24 23 9 13 17 15 16 16 16 17 8 10 7 6 9 3 5 3 4 3 4 6 5
5 4 7 16 17 19 19 31 28 27 31 27 29 29 15 17 19 13 15 7 3 16 22 18 17 11 17 18 16 17 20 17 15 12 13 8 4 8 7 4 5 3 6 6 8
6 7 6 14 14 23 22 24 27 29 30 31 25 21 27 17 14 8 12 9 5 9 8 9 17 15 11 11 11 16 19 18 16 9 9 12 12 12 13 8 10 7 4 9 5
8 9 12 15 21 23 21 17 31 30 31 30 27 26 15 21 18 16 16 3 7 6 7 4 14 19 18 18 17 18 20 19 21 16 14 13 16 15 12 1 4 2 4 9 14
7 10 14 13 20 24 24 28 31 27 27 35 30 24 15 23 21 10 16 13 7 1 7 8 14 14 20 20 22 16 20 22 21 20 19 14 16 14 12 12 9 7 3 4 2
10 14 10 14 16 22 27 27 28 28 26 30 30 27 16 14 17 4 8 0 2 9 9 12 8 13 15 19 17 19 16 13 13 14 13 14 10 11 9 10 7 2 3 4 7
Wind_Direction
345 347 346 343 343 330 323 322 322 324 326 320 323 323 318 318 314 302 268 274 172 158 170 244 214 238 241 260 263 278 268 289 313 265 358 261 327 346 307 263 288 49 89 125 119
341 341 340 338 331 329 324 323 318 319 319 321 323 321 317 324 306 285 237 123 138 175 223 222 223 229 245 250 235 242 275 241 271 316 313 342 307 215 1 62 339 7 93 118 116
342 345 341 335 332 331 325 325 320 317 315 319 321 321 317 322 292 72 157 138 147 206 255 289 270 290 258 267 228 251 283 314 311 333 324 309 306 95 259 57 165 219 104 104 95
323 336 336 338 333 331 325 323 317 313 308 313 317 322 316 306 285 113 152 147 181 233 243 268 256 254 250 267 238 252 279 299 311 331 315 288 311 300 288 39 103 85 95 97 103
311 317 322 331 333 328 323 315 312 312 307 306 312 322 328 297 265 132 157 159 202 216 235 245 247 248 256 265 280 266 288 296 306 308 287 270 278 276 296 99 70 74 86 93 98
306 312 312 315 323 321 316 311 307 300 298 297 304 315 284 272 265 203 210 170 221 212 234 247 248 248 292 295 301 300 248 286 44 322 311 309 274 61 344 328 121 89 83 85 97
289 304 312 309 311 314 313 309 302 294 292 286 297 294 263 250 280 301 223 224 215 207 235 228 253 281 278 282 277 278 278 280 15 252 276 270 271 16 5 316 125 92 89 82 93
290 297 306 307 305 306 309 303 297 288 286 278 285 283 262 260 276 249 247 228 235 226 237 268 250 271 280 292 287 272 263 257 228 231 254 254 253 135 241 239 253 119 119 111 106
294 294 298 306 307 304 308 302 290 281 272 262 265 219 266 239 228 236 238 221 217 237 231 253 264 258 261 252 263 246 262 255 151 214 242 250 301 209 181 241 242 132 136 127 121
300 291 295 301 309 310 311 294 274 263 239 243 244 278 237 254 250 209 227 225 215 214 220 225 236 240 240 250 255 255 270 304 299 207 248 259 320 350 185 198 164 150 149 144 142
291 293 295 299 309 316 323 312 218 189 206 228 191 238 301 202 240 234 215 210 222 214 220 213 225 232 240 233 246 282 304 292 117 261 242 283 302 176 232 164 136 142 145 139 152
278 289 294 302 308 317 302 271 312 6 291 253 249 256 256 276 272 211 214 200 212 209 215 227 220 239 247 267 304 290 278 281 301 333 7 290 230 227 178 154 174 166 182 145 149
276 276 288 301 308 292 245 263 301 315 270 261 244 237 236 230 241 248 204 203 212 213 213 223 229 220 249 260 247 251 262 276 272 253 248 336 322 194 172 177 191 172 168 156 175
256 264 274 294 283 275 254 247 241 304 278 261 224 243 218 222 229 234 240 205 226 219 223 225 239 242 237 236 235 246 253 269 287 286 272 258 266 222 211 188 203 174 167 172 189
242 249 257 229 316 301 2 349 333 238 275 283 200 138 211 197 164 206 222 203 223 220 210 229 232 239 224 238 241 263 311 300 281 274 287 206 268 109 172 216 188 200 172 177 171
230 238 240 246 249 263 295 328 330 226 236 244 138 197 199 200 222 225 199 226 222 237 219 234 231 227 242 227 243 259 275 258 263 258 261 268 220 110 301 260 175 190 183 181 171
237 226 225 246 245 260 22 340 218 225 220 236 184 190 212 204 215 232 189 206 206 217 223 222 235 228 231 226 227 238 228 241 239 238 244 188 257 174 202 221 89 116 182 186 179
231 223 232 244 247 268 56 221 226 221 235 105 209 183 210 209 211 221 217 211 207 220 217 214 218 227 194 229 213 217 217 200 193 300 282 323 254 198 136 101 149 164 262 170 191
223 224 235 222 243 230 192 230 223 240 222 246 254 239 202 225 228 207 226 210 210 220 220 207 227 215 207 205 240 201 221 253 234 239 261 221 254 182 124 115 129 234 174 202 189
214 221 224 222 198 215 222 228 233 246 267 284 241 222 220 205 210 209 212 226 214 211 231 242 219 231 198 194 226 251 230 226 230 251 249 270 262 345 200 196 134 178 124 116 47
205 222 184 210 185 209 219 213 227 240 260 265 270 263 245 246 206 217 224 222 225 229 223 239 254 222 219 199 208 216 236 248 242 224 238 269 139 169 35 146 166 174 142 139 144
198 217 201 170 201 210 220 218 227 236 244 256 273 287 249 250 224 217 242 198 237 206 239 232 234 249 207 193 212 238 214 237 243 237 228 169 258 170 317 304 240 206 216 184 169
199 156 237 177 210 215 225 234 241 237 243 255 255 266 251 269 256 235 223 212 252 297 219 208 233 233 240 195 203 222 240 212 236 244 245 231 249 277 236 197 310 252 256 261 167
156 175 184 211 229 211 216 228 235 235 246 250 255 266 300 236 270 266 221 193 154 292 338 330 219 228 224 214 209 224 232 237 226 233 258 262 261 249 278 200 222 200 276 287 187
185 215 186 198 206 219 216 216 227 222 227 251 256 257 249 279 240 240 248 119 176 251 313 340 244 231 236 241 226 214 222 235 250 249 232 228 249 259 265 288 335 282 155 135 244
179 205 195 223 201 212 225 223 235 215 220 221 243 241 227 259 276 305 267 184 186 135 255 253 270 230 247 228 248 251 223 215 218 242 258 255 257 265 276 273 211 234 243 214 257
200 212 191 196 193 200 216 221 226 234 221 228 223 245 238 249 267 348 335 86 129 163 285 244 250 228 239 247 245 249 243 250 226 231 244 251 260 269 277 273 273 244 257 180 123